| time (UTC) | temp F | wind direction | speed MPH | gust MPH | rain 1hr in | rain 24hr in | rain mn in | humidity % | barometer mb |
| 20260509100508 | 53 | 162 | 1.0 | 3.0 | 0.00 | 0.00 | 0.00 | 80 | 1021.5 |
| 20260509100008 | 53 | 163 | 1.0 | 3.0 | 0.00 | 0.00 | 0.00 | 80 | 1021.5 |
| 20260509095508 | 53 | 118 | 1.0 | 3.0 | 0.00 | 0.00 | 0.00 | 80 | 1021.5 |
| 20260509095008 | 53 | 85 | 1.0 | 3.0 | 0.00 | 0.00 | 0.00 | 80 | 1021.5 |
| 20260509094506 | 53 | 38 | 1.0 | 3.0 | 0.00 | 0.00 | 0.00 | 79 | 1021.4 |
| 20260509094006 | 53 | 34 | 1.0 | 2.0 | 0.00 | 0.00 | 0.00 | 79 | 1021.4 |
| 20260509093506 | 53 | 327 | 0.0 | 2.0 | 0.00 | 0.00 | 0.00 | 79 | 1021.4 |
| 20260509093006 | 53 | 326 | 0.0 | 2.0 | 0.00 | 0.00 | 0.00 | 79 | 1021.3 |
| 20260509092506 | 53 | 322 | 0.0 | 0.0 | 0.00 | 0.00 | 0.00 | 79 | 1021.3 |
| 20260509092005 | 53 | 322 | 0.0 | 1.0 | 0.00 | 0.00 | 0.00 | 79 | 1021.3 |
| 20260509091502 | 53 | 321 | 0.0 | 2.0 | 0.00 | 0.00 | 0.00 | 78 | 1021.3 |
| 20260509091231 | 54 | 321 | 0.0 | 4.0 | 0.00 | 0.00 | 0.00 | 78 | 1021.2 |
| 20260509090502 | 54 | 334 | 1.0 | 4.0 | 0.00 | 0.00 | 0.00 | 77 | 1021.2 |
| 20260509090234 | 54 | 156 | 1.0 | 4.0 | 0.00 | 0.00 | 0.00 | 77 | 1021.2 |
| 20260509085501 | 54 | 99 | 1.0 | 2.0 | 0.00 | 0.00 | 0.00 | 78 | 1021.2 |
| 20260509085000 | 54 | 101 | 1.0 | 2.0 | 0.00 | 0.00 | 0.00 | 78 | 1021.4 |
| 20260509084737 | 54 | 48 | 1.0 | 4.0 | 0.00 | 0.00 | 0.00 | 79 | 1021.4 |
| 20260509084001 | 54 | 50 | 1.0 | 4.0 | 0.00 | 0.00 | 0.00 | 78 | 1021.4 |
| 20260509083501 | 54 | 3 | 1.0 | 3.0 | 0.00 | 0.00 | 0.00 | 78 | 1021.5 |
| 20260509083007 | 54 | 351 | 0.0 | 2.0 | 0.00 | 0.00 | 0.00 | 78 | 1021.4 |
| 20260509082506 | 54 | 351 | 1.0 | 2.0 | 0.00 | 0.00 | 0.00 | 78 | 1021.5 |
| 20260509082004 | 55 | 350 | 1.0 | 4.0 | 0.00 | 0.00 | 0.00 | 77 | 1021.5 |
| 20260509081001 | 55 | 238 | 2.0 | 6.0 | 0.00 | 0.00 | 0.00 | 76 | 1021.4 |
| 20260509080502 | 55 | 320 | 2.0 | 6.0 | 0.00 | 0.00 | 0.00 | 75 | 1021.4 |
| 20260509080000 | 55 | 310 | 2.0 | 6.0 | 0.00 | 0.00 | 0.00 | 75 | 1021.4 |
| 20260509075501 | 55 | 164 | 2.0 | 6.0 | 0.00 | 0.00 | 0.00 | 76 | 1021.4 |
| 20260509074959 | 55 | 218 | 1.0 | 6.0 | 0.00 | 0.00 | 0.00 | 76 | 1021.5 |
| 20260509074453 | 55 | 193 | 1.0 | 4.0 | 0.00 | 0.00 | 0.00 | 77 | 1021.4 |
| 20260509073954 | 55 | 227 | 1.0 | 4.0 | 0.00 | 0.00 | 0.00 | 77 | 1021.3 |
| 20260509073451 | 55 | 221 | 2.0 | 5.0 | 0.00 | 0.00 | 0.00 | 77 | 1021.3 |
| 20260509072951 | 55 | 187 | 2.0 | 5.0 | 0.00 | 0.00 | 0.00 | 77 | 1021.4 |
| 20260509072717 | 55 | 245 | 2.0 | 6.0 | 0.00 | 0.00 | 0.00 | 78 | 1021.3 |
| 20260509071952 | 54 | 143 | 3.0 | 7.0 | 0.00 | 0.00 | 0.00 | 78 | 1021.3 |
| 20260509071722 | 54 | 147 | 3.0 | 7.0 | 0.00 | 0.00 | 0.00 | 77 | 1021.3 |
| 20260509070947 | 54 | 139 | 4.0 | 7.0 | 0.00 | 0.00 | 0.00 | 77 | 1021.3 |
| 20260509070447 | 54 | 147 | 4.0 | 8.0 | 0.00 | 0.00 | 0.00 | 78 | 1021.4 |
| 20260509065943 | 54 | 145 | 4.0 | 8.0 | 0.00 | 0.00 | 0.00 | 78 | 1021.3 |
| 20260509065443 | 54 | 147 | 4.0 | 7.0 | 0.00 | 0.00 | 0.00 | 78 | 1021.3 |
| 20260509064446 | 54 | 154 | 4.0 | 11.0 | 0.00 | 0.00 | 0.00 | 77 | 1021.3 |
| 20260509063946 | 54 | 146 | 5.0 | 11.0 | 0.00 | 0.00 | 0.00 | 77 | 1021.4 |
| 20260509063448 | 55 | 184 | 5.0 | 12.0 | 0.00 | 0.00 | 0.00 | 76 | 1021.4 |
| 20260509062948 | 55 | 140 | 5.0 | 12.0 | 0.00 | 0.00 | 0.00 | 76 | 1021.4 |
| 20260509062443 | 55 | 172 | 4.0 | 8.0 | 0.00 | 0.00 | 0.00 | 76 | 1021.3 |
| 20260509062208 | 55 | 147 | 4.0 | 8.0 | 0.00 | 0.00 | 0.00 | 76 | 1021.3 |
| 20260509061709 | 55 | 150 | 4.0 | 8.0 | 0.00 | 0.00 | 0.00 | 76 | 1021.3 |
| 20260509060943 | 55 | 143 | 4.0 | 8.0 | 0.00 | 0.00 | 0.00 | 75 | 1021.3 |
| 20260509060443 | 55 | 185 | 3.0 | 8.0 | 0.00 | 0.00 | 0.00 | 75 | 1021.4 |
| 20260509055943 | 55 | 145 | 4.0 | 9.0 | 0.00 | 0.00 | 0.00 | 75 | 1021.4 |
| 20260509055443 | 55 | 147 | 5.0 | 9.0 | 0.00 | 0.00 | 0.00 | 75 | 1021.4 |
| 20260509054944 | 55 | 155 | 5.0 | 9.0 | 0.00 | 0.00 | 0.00 | 74 | 1021.2 |
| 20260509054442 | 55 | 151 | 5.0 | 11.0 | 0.00 | 0.00 | 0.00 | 75 | 1021.4 |
| 20260509053936 | 55 | 149 | 5.0 | 11.0 | 0.00 | 0.00 | 0.00 | 75 | 1021.3 |
| 20260509053657 | 55 | 139 | 5.0 | 9.0 | 0.00 | 0.00 | 0.00 | 75 | 1021.3 |
| 20260509052932 | 55 | 151 | 6.0 | 11.0 | 0.00 | 0.00 | 0.00 | 75 | 1021.3 |
| 20260509052433 | 55 | 156 | 6.0 | 11.0 | 0.00 | 0.00 | 0.00 | 74 | 1021.3 |
| 20260509051931 | 55 | 157 | 6.0 | 14.0 | 0.00 | 0.00 | 0.00 | 74 | 1021.3 |
| 20260509051430 | 55 | 160 | 7.0 | 14.0 | 0.00 | 0.00 | 0.00 | 74 | 1021.3 |
| 20260509050930 | 55 | 170 | 8.0 | 15.0 | 0.00 | 0.00 | 0.00 | 73 | 1021.2 |
| 20260509050431 | 55 | 164 | 7.0 | 15.0 | 0.00 | 0.00 | 0.00 | 73 | 1021.2 |
| 20260509045930 | 55 | 169 | 7.0 | 16.0 | 0.00 | 0.00 | 0.00 | 73 | 1021.2 |
| 20260509045431 | 55 | 145 | 6.0 | 16.0 | 0.00 | 0.00 | 0.00 | 73 | 1021.2 |
| 20260509045150 | 55 | 159 | 6.0 | 14.0 | 0.00 | 0.00 | 0.00 | 73 | 1021.2 |
| 20260509044429 | 55 | 162 | 7.0 | 16.0 | 0.00 | 0.00 | 0.00 | 73 | 1021.2 |
| 20260509044200 | 55 | 168 | 8.0 | 16.0 | 0.00 | 0.00 | 0.00 | 72 | 1021.2 |
| 20260509043429 | 55 | 148 | 9.0 | 16.0 | 0.00 | 0.00 | 0.00 | 72 | 1021.0 |
| 20260509042932 | 55 | 133 | 9.0 | 19.0 | 0.00 | 0.00 | 0.00 | 72 | 1021.0 |
| 20260509042431 | 55 | 123 | 10.0 | 19.0 | 0.00 | 0.00 | 0.00 | 72 | 1021.0 |
| 20260509041933 | 55 | 83 | 11.0 | 20.0 | 0.00 | 0.00 | 0.00 | 72 | 1021.0 |
| 20260509041702 | 55 | 115 | 11.0 | 20.0 | 0.00 | 0.00 | 0.00 | 72 | 1021.0 |
| 20260509040929 | 55 | 106 | 12.0 | 22.0 | 0.00 | 0.00 | 0.00 | 72 | 1020.9 |
| 20260509040426 | 55 | 129 | 10.0 | 22.0 | 0.00 | 0.00 | 0.00 | 73 | 1020.7 |
| 20260509035919 | 55 | 146 | 8.0 | 16.0 | 0.00 | 0.00 | 0.00 | 73 | 1020.6 |
| 20260509035413 | 55 | 152 | 8.0 | 16.0 | 0.00 | 0.00 | 0.00 | 72 | 1020.6 |
| 20260509035130 | 55 | 164 | 8.0 | 18.0 | 0.00 | 0.00 | 0.00 | 72 | 1020.6 |
| 20260509034633 | 55 | 148 | 9.0 | 18.0 | 0.00 | 0.00 | 0.00 | 72 | 1020.6 |
| 20260509033907 | 55 | 120 | 10.0 | 19.0 | 0.00 | 0.00 | 0.00 | 72 | 1020.6 |
| 20260509033407 | 55 | 128 | 10.0 | 19.0 | 0.00 | 0.00 | 0.00 | 71 | 1020.6 |
| 20260509032902 | 55 | 123 | 10.0 | 18.0 | 0.00 | 0.00 | 0.00 | 71 | 1020.3 |
| 20260509032629 | 55 | 126 | 10.0 | 19.0 | 0.00 | 0.00 | 0.00 | 71 | 1020.5 |
| 20260509031901 | 55 | 151 | 9.0 | 19.0 | 0.00 | 0.00 | 0.00 | 71 | 1020.3 |
| 20260509031401 | 55 | 172 | 8.0 | 20.0 | 0.00 | 0.00 | 0.00 | 72 | 1020.3 |
| 20260509030901 | 55 | 120 | 10.0 | 20.0 | 0.00 | 0.00 | 0.00 | 72 | 1020.2 |
| 20260509030625 | 55 | 116 | 11.0 | 21.0 | 0.00 | 0.00 | 0.00 | 71 | 1020.2 |
| 20260509025902 | 55 | 147 | 11.0 | 21.0 | 0.00 | 0.00 | 0.00 | 71 | 1020.2 |
| 20260509025401 | 55 | 180 | 10.0 | 21.0 | 0.00 | 0.00 | 0.00 | 71 | 1020.1 |
| 20260509024902 | 55 | 137 | 10.0 | 23.0 | 0.00 | 0.00 | 0.00 | 71 | 1020.1 |
| 20260509024402 | 55 | 122 | 11.0 | 23.0 | 0.00 | 0.00 | 0.00 | 70 | 1020.0 |
| 20260509023902 | 55 | 122 | 12.0 | 21.0 | 0.00 | 0.00 | 0.00 | 70 | 1020.1 |
| 20260509023402 | 55 | 109 | 11.0 | 19.0 | 0.00 | 0.00 | 0.00 | 70 | 1019.9 |
| 20260509022901 | 55 | 91 | 10.0 | 19.0 | 0.00 | 0.00 | 0.00 | 69 | 1019.9 |
| 20260509022400 | 55 | 135 | 10.0 | 18.0 | 0.00 | 0.00 | 0.00 | 69 | 1020.0 |
| 20260509021901 | 55 | 123 | 11.0 | 21.0 | 0.00 | 0.00 | 0.00 | 69 | 1019.9 |
| 20260509021402 | 55 | 189 | 11.0 | 21.0 | 0.00 | 0.00 | 0.00 | 68 | 1019.8 |
| 20260509021127 | 56 | 114 | 10.0 | 19.0 | 0.00 | 0.00 | 0.00 | 68 | 1019.9 |
| 20260509020402 | 56 | 174 | 11.0 | 19.0 | 0.00 | 0.00 | 0.00 | 68 | 1019.8 |
| 20260509020124 | 56 | 135 | 9.0 | 19.0 | 0.00 | 0.00 | 0.00 | 68 | 1019.8 |
| 20260509015401 | 56 | 189 | 7.0 | 17.0 | 0.00 | 0.00 | 0.00 | 69 | 1019.8 |
| 20260509014901 | 56 | 105 | 7.0 | 16.0 | 0.00 | 0.00 | 0.00 | 68 | 1019.9 |
| 20260509014401 | 56 | 101 | 6.0 | 15.0 | 0.00 | 0.00 | 0.00 | 68 | 1019.9 |
| 20260509014139 | 57 | 203 | 6.0 | 16.0 | 0.00 | 0.00 | 0.00 | 67 | 1019.9 |
| 20260509013401 | 57 | 95 | 6.0 | 16.0 | 0.00 | 0.00 | 0.00 | 67 | 1019.8 |
| 20260509012901 | 57 | 96 | 6.0 | 14.0 | 0.00 | 0.00 | 0.00 | 66 | 1019.8 |
| 20260509012401 | 58 | 185 | 7.0 | 19.0 | 0.00 | 0.00 | 0.00 | 67 | 1019.7 |
| 20260509011903 | 57 | 89 | 7.0 | 19.0 | 0.00 | 0.00 | 0.00 | 67 | 1019.9 |
| 20260509011401 | 56 | 189 | 7.0 | 17.0 | 0.00 | 0.00 | 0.00 | 68 | 1019.8 |
| 20260509010901 | 56 | 219 | 7.0 | 18.0 | 0.00 | 0.00 | 0.00 | 67 | 1019.8 |
| 20260509010402 | 56 | 174 | 7.0 | 18.0 | 0.00 | 0.00 | 0.00 | 67 | 1019.8 |
| 20260509005901 | 56 | 91 | 7.0 | 18.0 | 0.00 | 0.00 | 0.00 | 67 | 1019.9 |
| 20260509005356 | 56 | 157 | 6.0 | 18.0 | 0.00 | 0.00 | 0.00 | 67 | 1019.8 |
| 20260509004855 | 56 | 95 | 7.0 | 20.0 | 0.00 | 0.00 | 0.00 | 67 | 1019.8 |
| 20260509004354 | 56 | 116 | 9.0 | 20.0 | 0.00 | 0.00 | 0.00 | 68 | 1019.7 |
| 20260509003854 | 56 | 155 | 10.0 | 19.0 | 0.00 | 0.00 | 0.00 | 68 | 1019.7 |
| 20260509003354 | 56 | 141 | 10.0 | 19.0 | 0.00 | 0.00 | 0.00 | 67 | 1019.8 |
| 20260509002855 | 56 | 141 | 10.0 | 20.0 | 0.00 | 0.00 | 0.00 | 68 | 1019.8 |
| 20260509002354 | 56 | 136 | 10.0 | 20.0 | 0.00 | 0.00 | 0.00 | 68 | 1019.9 |
| 20260509001854 | 56 | 86 | 10.0 | 22.0 | 0.00 | 0.00 | 0.00 | 69 | 1019.8 |
| 20260509001357 | 55 | 121 | 10.0 | 22.0 | 0.00 | 0.00 | 0.00 | 69 | 1019.8 |
| 20260509000857 | 55 | 122 | 9.0 | 19.0 | 0.00 | 0.00 | 0.00 | 70 | 1019.8 |
| 20260509000403 | 55 | 122 | 8.0 | 19.0 | 0.00 | 0.00 | 0.00 | 71 | 1019.8 |
| 20260508235857 | 55 | 143 | 6.0 | 19.0 | 0.00 | 0.00 | 0.00 | 70 | 1019.8 |
| 20260508235355 | 56 | 126 | 6.0 | 12.0 | 0.00 | 0.00 | 0.00 | 70 | 1019.8 |
| 20260508234853 | 56 | 124 | 7.0 | 16.0 | 0.00 | 0.00 | 0.00 | 66 | 1019.9 |
| 20260508234353 | 57 | 100 | 6.0 | 16.0 | 0.00 | 0.00 | 0.00 | 65 | 1019.8 |
| 20260508233850 | 57 | 136 | 5.0 | 14.0 | 0.00 | 0.00 | 0.00 | 65 | 1020.0 |
| 20260508233349 | 57 | 91 | 4.0 | 14.0 | 0.00 | 0.00 | 0.00 | 64 | 1019.9 |
| 20260508232849 | 58 | 239 | 4.0 | 8.0 | 0.00 | 0.00 | 0.00 | 64 | 1019.8 |
| 20260508232349 | 58 | 83 | 3.0 | 8.0 | 0.00 | 0.00 | 0.00 | 63 | 1019.9 |
| 20260508231351 | 59 | 47 | 5.0 | 14.0 | 0.00 | 0.00 | 0.00 | 62 | 1019.8 |
| 20260508231118 | 60 | 121 | 5.0 | 14.0 | 0.00 | 0.00 | 0.00 | 63 | 1019.8 |
| 20260508230347 | 59 | 155 | 5.0 | 13.0 | 0.00 | 0.00 | 0.00 | 66 | 1019.8 |
| 20260508225848 | 58 | 248 | 5.0 | 12.0 | 0.00 | 0.00 | 0.00 | 63 | 1019.8 |
| 20260508225349 | 58 | 118 | 4.0 | 13.0 | 0.00 | 0.00 | 0.00 | 63 | 1019.7 |
| 20260508224848 | 59 | 235 | 4.0 | 13.0 | 0.00 | 0.00 | 0.00 | 65 | 1019.7 |
| 20260508224348 | 59 | 139 | 5.0 | 16.0 | 0.00 | 0.00 | 0.00 | 62 | 1019.7 |
| 20260508223848 | 60 | 253 | 4.0 | 16.0 | 0.00 | 0.00 | 0.00 | 63 | 1019.7 |
| 20260508223348 | 61 | 80 | 3.0 | 12.0 | 0.00 | 0.00 | 0.00 | 63 | 1019.6 |
| 20260508222846 | 59 | 272 | 3.0 | 9.0 | 0.00 | 0.00 | 0.00 | 63 | 1019.6 |
| 20260508222346 | 58 | 259 | 3.0 | 9.0 | 0.00 | 0.00 | 0.00 | 66 | 1019.6 |
| 20260508221846 | 58 | 210 | 3.0 | 9.0 | 0.00 | 0.00 | 0.00 | 64 | 1019.6 |
| 20260508221344 | 58 | 239 | 3.0 | 9.0 | 0.00 | 0.00 | 0.00 | 65 | 1019.6 |
| 20260508220843 | 59 | 216 | 3.0 | 9.0 | 0.00 | 0.00 | 0.00 | 62 | 1019.7 |
| 20260508220341 | 59 | 13 | 3.0 | 9.0 | 0.00 | 0.00 | 0.00 | 62 | 1019.5 |
| 20260508215844 | 59 | 328 | 4.0 | 13.0 | 0.00 | 0.00 | 0.00 | 64 | 1019.4 |
| 20260508215616 | 58 | 148 | 5.0 | 13.0 | 0.00 | 0.00 | 0.00 | 63 | 1019.5 |
| 20260508214840 | 58 | 167 | 5.0 | 15.0 | 0.00 | 0.00 | 0.00 | 61 | 1019.4 |
| 20260508214338 | 60 | 222 | 4.0 | 15.0 | 0.00 | 0.00 | 0.00 | 63 | 1019.4 |
| 20260508213835 | 60 | 278 | 4.0 | 11.0 | 0.00 | 0.00 | 0.00 | 63 | 1019.3 |
| 20260508213335 | 58 | 170 | 4.0 | 17.0 | 0.00 | 0.00 | 0.00 | 63 | 1019.4 |
| 20260508212833 | 58 | 186 | 4.0 | 17.0 | 0.00 | 0.00 | 0.00 | 63 | 1019.3 |
| 20260508212334 | 58 | 305 | 4.0 | 12.0 | 0.00 | 0.00 | 0.00 | 63 | 1019.3 |
| 20260508211832 | 60 | 245 | 3.0 | 10.0 | 0.00 | 0.00 | 0.00 | 60 | 1019.3 |
| 20260508211605 | 60 | 320 | 2.0 | 6.0 | 0.00 | 0.00 | 0.00 | 65 | 1019.2 |
| 20260508210836 | 59 | 101 | 2.0 | 8.0 | 0.00 | 0.00 | 0.00 | 62 | 1019.2 |
| 20260508210332 | 58 | 80 | 3.0 | 11.0 | 0.00 | 0.00 | 0.00 | 64 | 1019.2 |
| 20260508205832 | 57 | 276 | 3.0 | 12.0 | 0.00 | 0.00 | 0.00 | 64 | 1019.1 |
| 20260508205331 | 57 | 239 | 3.0 | 12.0 | 0.00 | 0.00 | 0.00 | 63 | 1019.1 |
| 20260508204832 | 58 | 17 | 2.0 | 6.0 | 0.00 | 0.00 | 0.00 | 66 | 1019.1 |
| 20260508204331 | 58 | 116 | 3.0 | 11.0 | 0.00 | 0.00 | 0.00 | 63 | 1019.1 |
| 20260508203841 | 58 | 12 | 4.0 | 11.0 | 0.00 | 0.00 | 0.00 | 66 | 1019.1 |
| 20260508203336 | 56 | 154 | 4.0 | 18.0 | 0.00 | 0.00 | 0.00 | 68 | 1018.9 |
| 20260508202833 | 57 | 136 | 4.0 | 18.0 | 0.00 | 0.00 | 0.00 | 66 | 1018.9 |
| 20260508202325 | 58 | 285 | 3.0 | 9.0 | 0.00 | 0.00 | 0.00 | 65 | 1018.9 |
| 20260508201810 | 59 | 68 | 3.0 | 9.0 | 0.00 | 0.00 | 0.00 | 65 | 1018.8 |
| 20260508201307 | 59 | 295 | 4.0 | 10.0 | 0.00 | 0.00 | 0.00 | 63 | 1018.8 |
| 20260508200809 | 59 | 258 | 4.0 | 10.0 | 0.00 | 0.00 | 0.00 | 64 | 1018.8 |
| 20260508200307 | 58 | 135 | 4.0 | 10.0 | 0.00 | 0.00 | 0.00 | 65 | 1018.7 |
| 20260508195812 | 59 | 253 | 3.0 | 8.0 | 0.00 | 0.00 | 0.00 | 66 | 1018.7 |
| 20260508195312 | 57 | 224 | 4.0 | 12.0 | 0.00 | 0.00 | 0.00 | 67 | 1018.6 |
| 20260508194810 | 58 | 120 | 4.0 | 12.0 | 0.00 | 0.00 | 0.00 | 67 | 1018.5 |
| 20260508194312 | 58 | 262 | 3.0 | 12.0 | 0.00 | 0.00 | 0.00 | 67 | 1018.4 |
| 20260508193808 | 59 | 278 | 3.0 | 9.0 | 0.00 | 0.00 | 0.00 | 65 | 1018.4 |
| 20260508193308 | 59 | 267 | 2.0 | 9.0 | 0.00 | 0.00 | 0.00 | 63 | 1018.4 |
| 20260508192804 | 61 | 269 | 2.0 | 9.0 | 0.00 | 0.00 | 0.00 | 64 | 1018.3 |
| 20260508192300 | 58 | 337 | 3.0 | 12.0 | 0.00 | 0.00 | 0.00 | 65 | 1018.3 |
| 20260508191800 | 59 | 300 | 4.0 | 15.0 | 0.00 | 0.00 | 0.00 | 66 | 1018.2 |
| 20260508191305 | 57 | 232 | 5.0 | 15.0 | 0.00 | 0.00 | 0.00 | 70 | 1018.1 |
| 20260508190301 | 57 | 222 | 4.0 | 13.0 | 0.00 | 0.00 | 0.00 | 69 | 1018.2 |
| 20260508185801 | 57 | 141 | 4.0 | 11.0 | 0.00 | 0.00 | 0.00 | 69 | 1018.2 |
| 20260508185534 | 57 | 261 | 4.0 | 9.0 | 0.00 | 0.00 | 0.00 | 68 | 1018.1 |
| 20260508184757 | 57 | 272 | 5.0 | 14.0 | 0.00 | 0.00 | 0.00 | 70 | 1018.0 |
| 20260508184251 | 57 | 76 | 4.0 | 14.0 | 0.00 | 0.00 | 0.00 | 68 | 1018.1 |
| 20260508183745 | 58 | 295 | 3.0 | 8.0 | 0.00 | 0.00 | 0.00 | 68 | 1018.1 |
| 20260508183503 | 57 | 307 | 3.0 | 8.0 | 0.00 | 0.00 | 0.00 | 69 | 1018.0 |
| 20260508182740 | 58 | 47 | 3.0 | 9.0 | 0.00 | 0.00 | 0.00 | 71 | 1018.0 |
| 20260508182239 | 57 | 290 | 4.0 | 9.0 | 0.00 | 0.00 | 0.00 | 71 | 1018.0 |
| 20260508182010 | 57 | 310 | 4.0 | 9.0 | 0.00 | 0.00 | 0.00 | 70 | 1017.9 |
| 20260508181513 | 58 | 337 | 4.0 | 9.0 | 0.00 | 0.00 | 0.00 | 70 | 1017.9 |
| 20260508181005 | 56 | 285 | 3.0 | 8.0 | 0.00 | 0.00 | 0.00 | 72 | 1017.8 |
| 20260508180507 | 56 | 290 | 2.0 | 6.0 | 0.00 | 0.00 | 0.00 | 73 | 1017.8 |
| 20260508175739 | 55 | 208 | 2.0 | 5.0 | 0.00 | 0.00 | 0.00 | 73 | 1017.7 |
| 20260508175510 | 55 | 285 | 2.0 | 5.0 | 0.00 | 0.00 | 0.00 | 73 | 1017.7 |
| 20260508174737 | 55 | 285 | 2.0 | 5.0 | 0.00 | 0.00 | 0.00 | 73 | 1017.8 |
| 20260508174235 | 55 | 299 | 1.0 | 4.0 | 0.00 | 0.00 | 0.00 | 73 | 1017.7 |
| 20260508174002 | 55 | 269 | 1.0 | 4.0 | 0.00 | 0.00 | 0.00 | 72 | 1017.7 |
| 20260508173231 | 55 | 172 | 2.0 | 5.0 | 0.00 | 0.00 | 0.00 | 72 | 1017.6 |
| 20260508172732 | 55 | 341 | 2.0 | 8.0 | 0.00 | 0.00 | 0.00 | 73 | 1017.5 |
| 20260508172457 | 55 | 285 | 2.0 | 8.0 | 0.00 | 0.00 | 0.00 | 71 | 1017.7 |
| 20260508171730 | 55 | 84 | 2.0 | 11.0 | 0.00 | 0.00 | 0.00 | 72 | 1017.6 |
| 20260508171228 | 55 | 93 | 3.0 | 11.0 | 0.00 | 0.00 | 0.00 | 71 | 1017.5 |
| 20260508170729 | 55 | 326 | 3.0 | 10.0 | 0.00 | 0.00 | 0.00 | 72 | 1017.4 |
| 20260508170228 | 56 | 249 | 3.0 | 11.0 | 0.00 | 0.00 | 0.00 | 72 | 1017.2 |
| 20260508165957 | 55 | 304 | 5.0 | 11.0 | 0.00 | 0.00 | 0.00 | 74 | 1017.3 |
| 20260508165229 | 56 | 134 | 4.0 | 11.0 | 0.00 | 0.00 | 0.00 | 73 | 1017.2 |
| 20260508164229 | 56 | 295 | 4.0 | 11.0 | 0.00 | 0.00 | 0.00 | 74 | 1016.8 |
| 20260508163955 | 56 | 44 | 3.0 | 11.0 | 0.00 | 0.00 | 0.00 | 74 | 1016.7 |
| 20260508163458 | 56 | 124 | 2.0 | 7.0 | 0.00 | 0.00 | 0.00 | 77 | 1016.8 |
| 20260508162728 | 55 | 247 | 3.0 | 9.0 | 0.00 | 0.00 | 0.00 | 76 | 1016.8 |
| 20260508162229 | 55 | 224 | 3.0 | 9.0 | 0.00 | 0.00 | 0.00 | 77 | 1016.8 |
| 20260508161728 | 55 | 271 | 3.0 | 8.0 | 0.00 | 0.00 | 0.00 | 76 | 1016.6 |
| 20260508161229 | 55 | 248 | 3.0 | 8.0 | 0.00 | 0.00 | 0.00 | 76 | 1016.7 |
| 20260508160729 | 54 | 230 | 3.0 | 8.0 | 0.00 | 0.00 | 0.00 | 77 | 1016.7 |
| 20260508160229 | 55 | 300 | 3.0 | 5.0 | 0.00 | 0.00 | 0.00 | 75 | 1016.6 |
| 20260508155955 | 55 | 226 | 3.0 | 8.0 | 0.00 | 0.00 | 0.00 | 75 | 1016.6 |
| 20260508155229 | 54 | 251 | 4.0 | 8.0 | 0.00 | 0.00 | 0.00 | 76 | 1016.7 |
| 20260508154729 | 54 | 187 | 4.0 | 11.0 | 0.00 | 0.00 | 0.00 | 76 | 1016.7 |
| 20260508154229 | 53 | 129 | 5.0 | 12.0 | 0.00 | 0.00 | 0.00 | 75 | 1016.5 |
| 20260508153729 | 53 | 189 | 4.0 | 12.0 | 0.00 | 0.00 | 0.00 | 76 | 1016.5 |
| 20260508153225 | 53 | 184 | 4.0 | 13.0 | 0.00 | 0.00 | 0.00 | 76 | 1016.5 |
| 20260508152725 | 53 | 187 | 5.0 | 13.0 | 0.00 | 0.00 | 0.00 | 76 | 1016.4 |
| 20260508152225 | 53 | 217 | 5.0 | 11.0 | 0.00 | 0.00 | 0.00 | 78 | 1016.4 |
| 20260508151723 | 53 | 188 | 4.0 | 10.0 | 0.00 | 0.00 | 0.00 | 78 | 1016.3 |
| 20260508151223 | 53 | 178 | 4.0 | 10.0 | 0.00 | 0.00 | 0.00 | 78 | 1016.2 |
| 20260508150723 | 53 | 129 | 2.0 | 8.0 | 0.00 | 0.00 | 0.00 | 79 | 1016.0 |
| 20260508150223 | 53 | 247 | 3.0 | 12.0 | 0.00 | 0.00 | 0.00 | 79 | 1016.1 |
| 20260508145722 | 53 | 143 | 4.0 | 12.0 | 0.00 | 0.00 | 0.00 | 81 | 1015.9 |
| 20260508145226 | 52 | 128 | 4.0 | 13.0 | 0.00 | 0.00 | 0.00 | 82 | 1016.0 |
| 20260508144722 | 52 | 176 | 3.0 | 13.0 | 0.00 | 0.00 | 0.00 | 82 | 1016.1 |
| 20260508144222 | 52 | 266 | 3.0 | 8.0 | 0.00 | 0.00 | 0.00 | 82 | 1016.1 |
| 20260508143221 | 52 | 307 | 2.0 | 4.0 | 0.00 | 0.00 | 0.00 | 82 | 1015.8 |
| 20260508142720 | 53 | 295 | 1.0 | 3.0 | 0.00 | 0.00 | 0.00 | 81 | 1015.8 |
| 20260508142220 | 53 | 319 | 1.0 | 3.0 | 0.00 | 0.00 | 0.00 | 81 | 1015.6 |
| 20260508141714 | 53 | 324 | 2.0 | 4.0 | 0.00 | 0.00 | 0.00 | 80 | 1015.4 |
| 20260508141210 | 54 | 14 | 2.0 | 6.0 | 0.00 | 0.00 | 0.00 | 79 | 1015.3 |
| 20260508140706 | 53 | 40 | 2.0 | 6.0 | 0.00 | 0.00 | 0.00 | 80 | 1015.3 |
| 20260508140207 | 53 | 0 | 3.0 | 11.0 | 0.00 | 0.00 | 0.00 | 79 | 1015.3 |
| 20260508135705 | 54 | 295 | 3.0 | 13.0 | 0.00 | 0.00 | 0.00 | 77 | 1015.3 |
| 20260508135203 | 54 | 120 | 3.0 | 13.0 | 0.00 | 0.00 | 0.00 | 77 | 1015.2 |
| 20260508134701 | 54 | 215 | 3.0 | 9.0 | 0.00 | 0.00 | 0.00 | 77 | 1015.1 |
| 20260508134201 | 54 | 141 | 2.0 | 9.0 | 0.00 | 0.00 | 0.00 | 77 | 1015.0 |
| 20260508133700 | 54 | 186 | 2.0 | 8.0 | 0.00 | 0.00 | 0.00 | 77 | 1015.1 |
| 20260508133202 | 54 | 249 | 3.0 | 9.0 | 0.00 | 0.00 | 0.00 | 77 | 1015.0 |
| 20260508132925 | 54 | 153 | 3.0 | 9.0 | 0.00 | 0.00 | 0.00 | 78 | 1015.1 |
| 20260508132202 | 53 | 349 | 2.0 | 5.0 | 0.00 | 0.00 | 0.00 | 79 | 1015.0 |
| 20260508131700 | 53 | 353 | 2.0 | 4.0 | 0.00 | 0.00 | 0.00 | 79 | 1015.0 |
| 20260508131203 | 53 | 353 | 2.0 | 7.0 | 0.00 | 0.00 | 0.00 | 78 | 1015.2 |
| 20260508130705 | 54 | 341 | 3.0 | 9.0 | 0.00 | 0.00 | 0.00 | 77 | 1015.1 |
| 20260508130203 | 54 | 53 | 4.0 | 9.0 | 0.00 | 0.00 | 0.00 | 76 | 1015.0 |
| 20260508125702 | 54 | 210 | 3.0 | 9.0 | 0.00 | 0.00 | 0.00 | 77 | 1015.0 |
| 20260508125205 | 54 | 353 | 3.0 | 9.0 | 0.00 | 0.00 | 0.00 | 76 | 1015.0 |
| 20260508124707 | 54 | 154 | 4.0 | 9.0 | 0.00 | 0.00 | 0.00 | 76 | 1014.9 |
| 20260508124203 | 54 | 216 | 3.0 | 9.0 | 0.00 | 0.00 | 0.00 | 76 | 1014.9 |
| 20260508123936 | 54 | 157 | 3.0 | 9.0 | 0.00 | 0.00 | 0.00 | 76 | 1015.2 |
| 20260508123153 | 54 | 103 | 3.0 | 9.0 | 0.00 | 0.00 | 0.00 | 76 | 1014.9 |
| 20260508122647 | 54 | 124 | 3.0 | 10.0 | 0.00 | 0.00 | 0.00 | 77 | 1014.9 |
| 20260508122144 | 54 | 164 | 3.0 | 10.0 | 0.00 | 0.00 | 0.00 | 77 | 1014.9 |
| 20260508121638 | 54 | 185 | 2.0 | 7.0 | 0.00 | 0.00 | 0.00 | 77 | 1014.8 |
| 20260508121127 | 54 | 100 | 2.0 | 7.0 | 0.00 | 0.00 | 0.00 | 77 | 1014.8 |
| 20260508120621 | 54 | 10 | 2.0 | 6.0 | 0.00 | 0.00 | 0.00 | 77 | 1014.9 |
| 20260508120115 | 54 | 334 | 2.0 | 10.0 | 0.00 | 0.00 | 0.00 | 77 | 1014.9 |
| 20260508115614 | 54 | 122 | 2.0 | 10.0 | 0.00 | 0.00 | 0.00 | 77 | 1014.9 |
| 20260508115111 | 54 | 112 | 3.0 | 9.0 | 0.00 | 0.00 | 0.00 | 77 | 1014.9 |
| 20260508114830 | 54 | 219 | 3.0 | 9.0 | 0.00 | 0.00 | 0.00 | 77 | 1015.0 |
| 20260508114108 | 54 | 99 | 3.0 | 11.0 | 0.00 | 0.00 | 0.00 | 77 | 1014.9 |
| 20260508113609 | 55 | 126 | 3.0 | 11.0 | 0.00 | 0.00 | 0.00 | 76 | 1015.0 |
| 20260508113109 | 55 | 171 | 3.0 | 12.0 | 0.00 | 0.00 | 0.00 | 76 | 1014.9 |
| 20260508112607 | 55 | 240 | 4.0 | 12.0 | 0.00 | 0.00 | 0.00 | 77 | 1014.7 |
| 20260508112108 | 55 | 137 | 4.0 | 11.0 | 0.00 | 0.00 | 0.00 | 76 | 1014.7 |
| 20260508111608 | 55 | 247 | 4.0 | 12.0 | 0.00 | 0.00 | 0.00 | 76 | 1014.7 |
| 20260508111107 | 55 | 237 | 4.0 | 15.0 | 0.00 | 0.00 | 0.00 | 76 | 1014.7 |
| 20260508110608 | 55 | 174 | 4.0 | 15.0 | 0.00 | 0.00 | 0.00 | 76 | 1014.7 |
| 20260508110108 | 55 | 220 | 3.0 | 8.0 | 0.00 | 0.00 | 0.00 | 76 | 1014.7 |
| 20260508105608 | 56 | 139 | 3.0 | 8.0 | 0.00 | 0.00 | 0.00 | 76 | 1014.6 |
| 20260508105106 | 56 | 261 | 3.0 | 7.0 | 0.00 | 0.00 | 0.00 | 75 | 1014.6 |
| 20260508104839 | 56 | 148 | 3.0 | 10.0 | 0.00 | 0.00 | 0.00 | 75 | 1014.6 |
| 20260508104102 | 56 | 75 | 4.0 | 10.0 | 0.00 | 0.00 | 0.00 | 75 | 1014.6 |
| 20260508103601 | 56 | 165 | 4.0 | 12.0 | 0.00 | 0.00 | 0.00 | 74 | 1014.7 |
| 20260508103102 | 56 | 118 | 4.0 | 12.0 | 0.00 | 0.00 | 0.00 | 75 | 1014.6 |
| 20260508102558 | 56 | 51 | 4.0 | 11.0 | 0.00 | 0.00 | 0.00 | 75 | 1014.6 |
| 20260508102052 | 56 | 107 | 5.0 | 12.0 | 0.00 | 0.00 | 0.00 | 74 | 1014.6 |
| 20260508101546 | 56 | 149 | 4.0 | 12.0 | 0.00 | 0.00 | 0.00 | 74 | 1014.7 |
| 20260508101040 | 57 | 166 | 5.0 | 15.0 | 0.00 | 0.00 | 0.00 | 74 | 1014.7 |